| time (UTC) | temp F | wind direction | speed MPH | gust MPH | rain 1hr in | rain 24hr in | rain mn in | humidity % | barometer mb |
| 20260904162005 | 57 | 249 | 1.0 | 2.0 | 0.00 | 0.20 | 0.20 | 99 | 1014.5 |
| 20260904161459 | 56 | 226 | 0.0 | 0.0 | 0.00 | 0.20 | 0.20 | 99 | 1014.5 |
| 20260904160954 | 56 | 248 | 0.0 | 0.0 | 0.00 | 0.20 | 0.20 | 99 | 1014.5 |
| 20260904160449 | 56 | 275 | 0.0 | 1.0 | 0.00 | 0.20 | 0.20 | 99 | 1014.9 |
| 20260904155944 | 56 | 223 | 0.0 | 0.0 | 0.00 | 0.20 | 0.20 | 99 | 1014.9 |
| 20260904155439 | 57 | 211 | 0.0 | 0.0 | 0.00 | 0.20 | 0.20 | 99 | 1014.9 |
| 20260904154937 | 56 | 213 | 0.0 | 0.0 | 0.00 | 0.20 | 0.20 | 99 | 1014.5 |
| 20260904154432 | 56 | 213 | 0.0 | 0.0 | 0.00 | 0.20 | 0.20 | 99 | 1014.9 |
| 20260904153927 | 56 | 121 | 0.0 | 0.0 | 0.00 | 0.20 | 0.20 | 99 | 1014.9 |
| 20260904153422 | 56 | 120 | 0.0 | 0.0 | 0.00 | 0.20 | 0.20 | 99 | 1014.5 |
| 20260904152919 | 55 | 120 | 0.0 | 0.0 | 0.00 | 0.20 | 0.20 | 99 | 1014.5 |
| 20260904152414 | 55 | 120 | 0.0 | 0.0 | 0.00 | 0.20 | 0.20 | 99 | 1014.5 |
| 20260904151913 | 55 | 120 | 0.0 | 0.0 | 0.00 | 0.20 | 0.20 | 99 | 1014.5 |
| 20260904151408 | 55 | 112 | 1.0 | 1.0 | 0.00 | 0.20 | 0.20 | 99 | 1014.5 |
| 20260904150904 | 55 | 226 | 0.0 | 0.0 | 0.00 | 0.20 | 0.20 | 99 | 1014.2 |
| 20260904150359 | 55 | 191 | 0.0 | 1.0 | 0.07 | 0.20 | 0.20 | 99 | 1014.5 |
| 20260904145856 | 55 | 277 | 1.0 | 1.0 | 0.07 | 0.20 | 0.20 | 99 | 1014.2 |
| 20260904145353 | 55 | 303 | 1.0 | 2.0 | 0.05 | 0.19 | 0.19 | 99 | 1014.2 |
| 20260904144848 | 55 | 241 | 0.0 | 1.0 | 0.05 | 0.19 | 0.19 | 99 | 1014.2 |
| 20260904144344 | 55 | 226 | 0.0 | 0.0 | 0.07 | 0.18 | 0.18 | 99 | 1014.2 |
| 20260904143839 | 55 | 220 | 0.0 | 0.0 | 0.07 | 0.18 | 0.18 | 99 | 1014.2 |
| 20260904143336 | 54 | 217 | 0.0 | 0.0 | 0.00 | 0.17 | 0.17 | 99 | 1014.2 |
| 20260904142832 | 54 | 221 | 0.0 | 0.0 | 0.00 | 0.17 | 0.17 | 99 | 1014.2 |
| 20260904142328 | 54 | 254 | 2.0 | 2.0 | 0.00 | 0.17 | 0.17 | 99 | 1014.2 |
| 20260904141828 | 54 | 247 | 0.0 | 1.0 | 0.00 | 0.17 | 0.17 | 99 | 1014.2 |
| 20260904141323 | 54 | 217 | 0.0 | 0.0 | 0.00 | 0.17 | 0.17 | 99 | 1014.2 |
| 20260904140819 | 54 | 224 | 0.0 | 0.0 | 0.00 | 0.17 | 0.17 | 99 | 1013.8 |
| 20260904140314 | 54 | 217 | 0.0 | 0.0 | 0.00 | 0.17 | 0.17 | 99 | 1013.8 |
| 20260904135813 | 54 | 333 | 0.0 | 0.0 | 0.00 | 0.17 | 0.17 | 99 | 1013.8 |
| 20260904135308 | 54 | 244 | 2.0 | 2.0 | 0.00 | 0.17 | 0.17 | 99 | 1013.5 |
| 20260904134804 | 54 | 222 | 0.0 | 0.0 | 0.05 | 0.17 | 0.17 | 99 | 1013.5 |
| 20260904134304 | 54 | 243 | 1.0 | 1.0 | 0.05 | 0.17 | 0.17 | 99 | 1013.5 |
| 20260904133759 | 54 | 215 | 0.0 | 0.0 | 0.00 | 0.16 | 0.16 | 99 | 1013.5 |
| 20260904133254 | 54 | 218 | 0.0 | 0.0 | 0.00 | 0.16 | 0.16 | 99 | 1013.5 |
| 20260904132754 | 54 | 220 | 0.0 | 0.0 | 0.00 | 0.16 | 0.16 | 99 | 1013.2 |
| 20260904132249 | 54 | 218 | 0.0 | 0.0 | 0.00 | 0.16 | 0.16 | 99 | 1013.2 |
| 20260904131748 | 54 | 218 | 0.0 | 0.0 | 0.00 | 0.16 | 0.16 | 99 | 1013.2 |
| 20260904131244 | 54 | 217 | 0.0 | 0.0 | 0.00 | 0.16 | 0.16 | 99 | 1013.2 |
| 20260904130744 | 54 | 218 | 0.0 | 0.0 | 0.00 | 0.16 | 0.16 | 99 | 1013.2 |
| 20260904130244 | 54 | 215 | 0.0 | 0.0 | 0.00 | 0.16 | 0.16 | 99 | 1013.2 |
| 20260904125740 | 54 | 224 | 0.0 | 0.0 | 0.00 | 0.16 | 0.16 | 99 | 1013.2 |
| 20260904125235 | 54 | 215 | 0.0 | 0.0 | 0.00 | 0.16 | 0.16 | 99 | 1013.2 |
| 20260904124735 | 54 | 224 | 0.0 | 0.0 | 0.00 | 0.16 | 0.16 | 99 | 1013.2 |
| 20260904124231 | 54 | 216 | 0.0 | 0.0 | 0.00 | 0.16 | 0.16 | 99 | 1012.8 |
| 20260904123726 | 54 | 220 | 0.0 | 0.0 | 0.00 | 0.16 | 0.16 | 99 | 1013.2 |
| 20260904123221 | 54 | 217 | 0.0 | 0.0 | 0.00 | 0.16 | 0.16 | 99 | 1013.2 |
| 20260904122716 | 54 | 216 | 0.0 | 0.0 | 0.00 | 0.16 | 0.16 | 99 | 1013.2 |
| 20260904122210 | 54 | 222 | 0.0 | 0.0 | 0.00 | 0.16 | 0.16 | 99 | 1013.2 |
| 20260904121706 | 54 | 216 | 0.0 | 0.0 | 0.00 | 0.16 | 0.16 | 99 | 1012.8 |
| 20260904121201 | 54 | 222 | 0.0 | 0.0 | 0.00 | 0.16 | 0.16 | 99 | 1013.2 |
| 20260904120658 | 54 | 219 | 0.0 | 0.0 | 0.00 | 0.16 | 0.16 | 99 | 1012.8 |
| 20260904120153 | 54 | 218 | 0.0 | 0.0 | 0.00 | 0.16 | 0.16 | 99 | 1013.2 |
| 20260904115649 | 54 | 218 | 0.0 | 0.0 | 0.00 | 0.16 | 0.16 | 99 | 1013.2 |
| 20260904115143 | 54 | 222 | 0.0 | 0.0 | 0.00 | 0.16 | 0.16 | 99 | 1012.8 |
| 20260904114637 | 54 | 215 | 0.0 | 0.0 | 0.00 | 0.16 | 0.16 | 99 | 1012.8 |
| 20260904114138 | 54 | 217 | 0.0 | 0.0 | 0.00 | 0.16 | 0.16 | 99 | 1012.8 |
| 20260904113637 | 54 | 218 | 0.0 | 0.0 | 0.00 | 0.16 | 0.16 | 99 | 1012.8 |
| 20260904113136 | 54 | 215 | 0.0 | 0.0 | 0.00 | 0.16 | 0.16 | 99 | 1012.5 |
| 20260904112632 | 54 | 209 | 0.0 | 0.0 | 0.00 | 0.16 | 0.16 | 99 | 1012.5 |
| 20260904112128 | 54 | 211 | 0.0 | 0.0 | 0.00 | 0.16 | 0.16 | 99 | 1012.5 |
| 20260904111623 | 54 | 212 | 0.0 | 0.0 | 0.00 | 0.16 | 0.16 | 99 | 1012.5 |
| 20260904111119 | 54 | 210 | 0.0 | 0.0 | 0.00 | 0.16 | 0.16 | 99 | 1012.5 |
| 20260904110614 | 54 | 216 | 0.0 | 0.0 | 0.00 | 0.16 | 0.16 | 99 | 1012.5 |
| 20260904110109 | 54 | 220 | 0.0 | 0.0 | 0.00 | 0.16 | 0.16 | 99 | 1012.5 |
| 20260904105609 | 54 | 216 | 0.0 | 0.0 | 0.00 | 0.16 | 0.16 | 99 | 1012.5 |
| 20260904105104 | 54 | 218 | 0.0 | 0.0 | 0.00 | 0.16 | 0.16 | 99 | 1012.5 |
| 20260904104559 | 54 | 219 | 1.0 | 1.0 | 0.00 | 0.16 | 0.16 | 99 | 1012.5 |
| 20260904104055 | 54 | 213 | 0.0 | 0.0 | 0.07 | 0.16 | 0.16 | 99 | 1012.1 |
| 20260904103550 | 54 | 212 | 0.0 | 0.0 | 0.07 | 0.16 | 0.16 | 99 | 1012.1 |
| 20260904103046 | 54 | 216 | 0.0 | 0.0 | 0.07 | 0.16 | 0.16 | 99 | 1012.5 |
| 20260904102542 | 54 | 219 | 0.0 | 0.0 | 0.05 | 0.15 | 0.15 | 99 | 1012.5 |
| 20260904102037 | 54 | 216 | 0.0 | 0.0 | 0.05 | 0.15 | 0.15 | 99 | 1012.5 |
| 20260904101534 | 54 | 216 | 0.0 | 0.0 | 0.05 | 0.15 | 0.15 | 99 | 1012.5 |
| 20260904101029 | 54 | 211 | 0.0 | 0.0 | 0.07 | 0.14 | 0.14 | 99 | 1012.5 |
| 20260904100525 | 54 | 212 | 0.0 | 0.0 | 0.07 | 0.14 | 0.14 | 99 | 1012.1 |
| 20260904100019 | 54 | 213 | 0.0 | 0.0 | 0.05 | 0.13 | 0.13 | 99 | 1012.5 |
| 20260904095514 | 54 | 213 | 0.0 | 0.0 | 0.05 | 0.13 | 0.13 | 99 | 1012.5 |
| 20260904095009 | 54 | 214 | 0.0 | 0.0 | 0.05 | 0.13 | 0.13 | 99 | 1012.5 |
| 20260904094504 | 53 | 211 | 0.0 | 0.0 | 0.00 | 0.12 | 0.12 | 99 | 1012.5 |
| 20260904094000 | 54 | 206 | 0.0 | 0.0 | 0.00 | 0.12 | 0.12 | 99 | 1012.5 |
| 20260904093456 | 54 | 210 | 0.0 | 0.0 | 0.00 | 0.12 | 0.12 | 99 | 1012.1 |
| 20260904092950 | 54 | 213 | 0.0 | 0.0 | 0.00 | 0.12 | 0.12 | 99 | 1012.5 |
| 20260904092446 | 54 | 215 | 0.0 | 0.0 | 0.00 | 0.12 | 0.12 | 99 | 1012.5 |
| 20260904091942 | 54 | 214 | 0.0 | 0.0 | 0.07 | 0.12 | 0.12 | 99 | 1012.5 |
| 20260904091439 | 54 | 217 | 0.0 | 0.0 | 0.07 | 0.12 | 0.12 | 99 | 1012.1 |
| 20260904090938 | 54 | 210 | 0.0 | 0.0 | 0.07 | 0.11 | 0.11 | 99 | 1012.5 |
| 20260904090434 | 54 | 209 | 0.0 | 0.0 | 0.12 | 0.11 | 0.11 | 99 | 1012.5 |
| 20260904085928 | 54 | 207 | 0.0 | 0.0 | 0.12 | 0.10 | 0.10 | 99 | 1012.5 |
| 20260904085424 | 54 | 206 | 0.0 | 0.0 | 0.12 | 0.10 | 0.10 | 99 | 1012.5 |
| 20260904084919 | 54 | 205 | 0.0 | 0.0 | 0.12 | 0.08 | 0.08 | 99 | 1012.5 |
| 20260904084416 | 54 | 206 | 0.0 | 0.0 | 0.12 | 0.08 | 0.08 | 99 | 1012.5 |
| 20260904083910 | 54 | 209 | 0.0 | 0.0 | 0.12 | 0.07 | 0.07 | 99 | 1012.5 |
| 20260904083407 | 54 | 207 | 0.0 | 0.0 | 0.12 | 0.06 | 0.06 | 99 | 1012.5 |
| 20260904082857 | 54 | 212 | 0.0 | 0.0 | 0.12 | 0.05 | 0.05 | 99 | 1012.5 |
| 20260904082357 | 54 | 210 | 0.0 | 0.0 | 0.12 | 0.04 | 0.04 | 99 | 1012.5 |
| 20260904081852 | 54 | 211 | 0.0 | 0.0 | 0.12 | 0.03 | 0.03 | 99 | 1012.5 |
| 20260904081347 | 54 | 209 | 0.0 | 0.0 | 0.05 | 0.02 | 0.02 | 99 | 1012.5 |
| 20260904080844 | 54 | 206 | 0.0 | 0.0 | 0.12 | 0.02 | 0.02 | 99 | 1012.5 |
| 20260904080344 | 54 | 208 | 0.0 | 0.0 | 0.07 | 0.01 | 0.01 | 99 | 1012.5 |
| 20260904075840 | 54 | 212 | 0.0 | 0.0 | 0.00 | 0.00 | 0.00 | 99 | 1012.5 |
| 20260904075335 | 54 | 207 | 0.0 | 0.0 | 0.00 | 0.00 | 0.00 | 99 | 1012.5 |
| 20260904074833 | 54 | 208 | 0.0 | 0.0 | 0.00 | 0.00 | 0.00 | 99 | 1012.5 |
| 20260904074329 | 54 | 211 | 0.0 | 0.0 | 0.00 | 0.00 | 0.00 | 99 | 1012.5 |
| 20260904073825 | 54 | 209 | 0.0 | 0.0 | 0.00 | 0.00 | 0.00 | 99 | 1012.5 |
| 20260904073320 | 54 | 215 | 0.0 | 0.0 | 0.00 | 0.00 | 0.00 | 99 | 1012.5 |
| 20260904072816 | 54 | 215 | 0.0 | 0.0 | 0.00 | 0.00 | 0.00 | 99 | 1012.5 |
| 20260904072315 | 55 | 217 | 0.0 | 0.0 | 0.00 | 0.00 | 0.00 | 99 | 1012.1 |
| 20260904071811 | 54 | 216 | 0.0 | 0.0 | 0.00 | 0.00 | 0.00 | 99 | 1012.5 |
| 20260904071306 | 54 | 213 | 0.0 | 0.0 | 0.00 | 0.00 | 0.00 | 99 | 1012.5 |
| 20260904070801 | 54 | 214 | 0.0 | 0.0 | 0.05 | 0.00 | 0.00 | 99 | 1012.1 |
| 20260904070300 | 54 | 213 | 0.0 | 0.0 | 0.05 | 0.00 | 0.00 | 99 | 1012.1 |
| 20260904065755 | 54 | 213 | 0.0 | 0.0 | 0.00 | 0.63 | 0.63 | 99 | 1012.1 |
| 20260904065252 | 54 | 213 | 0.0 | 0.0 | 0.00 | 0.63 | 0.63 | 99 | 1012.5 |
| 20260904064751 | 54 | 213 | 0.0 | 0.0 | 0.00 | 0.63 | 0.63 | 99 | 1012.1 |
| 20260904064247 | 54 | 216 | 0.0 | 0.0 | 0.00 | 0.63 | 0.63 | 99 | 1012.1 |
| 20260904063743 | 54 | 214 | 0.0 | 0.0 | 0.00 | 0.63 | 0.63 | 99 | 1012.1 |
| 20260904063239 | 54 | 214 | 0.0 | 0.0 | 0.00 | 0.63 | 0.63 | 99 | 1012.1 |
| 20260904062734 | 54 | 215 | 0.0 | 0.0 | 0.00 | 0.63 | 0.63 | 99 | 1012.1 |
| 20260904062230 | 54 | 213 | 0.0 | 0.0 | 0.00 | 0.63 | 0.63 | 99 | 1012.5 |
| 20260904061725 | 54 | 212 | 0.0 | 0.0 | 0.00 | 0.63 | 0.63 | 99 | 1012.1 |
| 20260904061221 | 54 | 218 | 0.0 | 0.0 | 0.00 | 0.63 | 0.63 | 99 | 1012.5 |
| 20260904060718 | 54 | 218 | 0.0 | 0.0 | 0.00 | 0.63 | 0.63 | 99 | 1012.1 |
| 20260904060214 | 54 | 213 | 0.0 | 0.0 | 0.00 | 0.63 | 0.63 | 99 | 1012.5 |
| 20260904055709 | 55 | 214 | 0.0 | 0.0 | 0.00 | 0.63 | 0.63 | 99 | 1012.1 |
| 20260904055209 | 55 | 214 | 0.0 | 0.0 | 0.00 | 0.63 | 0.63 | 99 | 1012.1 |
| 20260904054704 | 54 | 213 | 0.0 | 0.0 | 0.00 | 0.63 | 0.63 | 99 | 1012.1 |
| 20260904054200 | 54 | 213 | 0.0 | 0.0 | 0.00 | 0.63 | 0.63 | 99 | 1012.1 |
| 20260904053655 | 54 | 213 | 0.0 | 0.0 | 0.00 | 0.63 | 0.63 | 99 | 1012.1 |
| 20260904053149 | 54 | 216 | 0.0 | 0.0 | 0.00 | 0.63 | 0.63 | 99 | 1012.1 |
| 20260904052646 | 54 | 213 | 0.0 | 0.0 | 0.00 | 0.63 | 0.63 | 99 | 1012.1 |
| 20260904052136 | 54 | 208 | 0.0 | 0.0 | 0.00 | 0.63 | 0.63 | 99 | 1012.5 |
| 20260904051632 | 54 | 206 | 0.0 | 0.0 | 0.00 | 0.63 | 0.63 | 99 | 1012.1 |
| 20260904051127 | 54 | 205 | 0.0 | 0.0 | 0.00 | 0.63 | 0.63 | 99 | 1012.5 |
| 20260904050622 | 54 | 196 | 0.0 | 0.0 | 0.00 | 0.63 | 0.63 | 99 | 1012.5 |
| 20260904050119 | 54 | 205 | 0.0 | 0.0 | 0.00 | 0.63 | 0.63 | 99 | 1012.5 |
| 20260904045619 | 54 | 198 | 0.0 | 0.0 | 0.00 | 0.63 | 0.63 | 99 | 1012.5 |
| 20260904045113 | 54 | 198 | 0.0 | 0.0 | 0.00 | 0.63 | 0.63 | 99 | 1012.5 |
| 20260904044608 | 54 | 219 | 0.0 | 1.0 | 0.00 | 0.63 | 0.63 | 99 | 1012.5 |
| 20260904044105 | 54 | 210 | 0.0 | 0.0 | 0.00 | 0.63 | 0.63 | 99 | 1012.1 |
| 20260904043602 | 54 | 208 | 0.0 | 0.0 | 0.00 | 0.63 | 0.63 | 99 | 1012.1 |
| 20260904043057 | 54 | 208 | 0.0 | 0.0 | 0.00 | 0.63 | 0.63 | 99 | 1012.5 |
| 20260904042553 | 54 | 213 | 0.0 | 0.0 | 0.00 | 0.63 | 0.63 | 99 | 1012.5 |
| 20260904042054 | 54 | 209 | 0.0 | 0.0 | 0.00 | 0.63 | 0.63 | 99 | 1012.1 |
| 20260904041549 | 54 | 212 | 0.0 | 0.0 | 0.00 | 0.63 | 0.63 | 99 | 1012.1 |
| 20260904041045 | 54 | 206 | 0.0 | 0.0 | 0.00 | 0.63 | 0.63 | 99 | 1012.1 |
| 20260904040545 | 54 | 199 | 1.0 | 1.0 | 0.00 | 0.63 | 0.63 | 99 | 1012.1 |
| 20260904040042 | 55 | 199 | 0.0 | 1.0 | 0.00 | 0.63 | 0.63 | 99 | 1012.1 |
| 20260904035537 | 55 | 181 | 1.0 | 2.0 | 0.00 | 0.63 | 0.63 | 99 | 1012.1 |
| 20260904035036 | 55 | 208 | 0.0 | 0.0 | 0.00 | 0.63 | 0.63 | 99 | 1012.5 |
| 20260904034531 | 55 | 193 | 0.0 | 0.0 | 0.00 | 0.63 | 0.63 | 99 | 1012.1 |
| 20260904034027 | 55 | 192 | 1.0 | 1.0 | 0.00 | 0.63 | 0.63 | 98 | 1012.1 |
| 20260904033523 | 55 | 217 | 0.0 | 0.0 | 0.00 | 0.63 | 0.63 | 98 | 1012.1 |
| 20260904033020 | 55 | 194 | 1.0 | 2.0 | 0.00 | 0.63 | 0.63 | 98 | 1012.1 |
| 20260904032515 | 55 | 188 | 1.0 | 2.0 | 0.07 | 0.63 | 0.63 | 98 | 1012.1 |
| 20260904032014 | 55 | 177 | 1.0 | 2.0 | 0.07 | 0.63 | 0.63 | 98 | 1012.1 |
| 20260904031509 | 55 | 133 | 3.0 | 3.0 | 0.07 | 0.62 | 0.62 | 98 | 1012.1 |
| 20260904031005 | 55 | 162 | 2.0 | 2.0 | 0.07 | 0.62 | 0.62 | 98 | 1012.1 |
| 20260904030500 | 55 | 192 | 1.0 | 1.0 | 0.00 | 0.61 | 0.61 | 98 | 1011.8 |
| 20260904025955 | 55 | 136 | 1.0 | 2.0 | 0.00 | 0.61 | 0.61 | 98 | 1012.1 |
| 20260904025451 | 56 | 188 | 4.0 | 5.0 | 0.00 | 0.61 | 0.61 | 98 | 1012.1 |
| 20260904024946 | 56 | 182 | 4.0 | 5.0 | 0.05 | 0.61 | 0.61 | 98 | 1012.1 |
| 20260904024441 | 56 | 159 | 3.0 | 5.0 | 0.17 | 0.61 | 0.61 | 98 | 1012.5 |
| 20260904023937 | 56 | 201 | 5.0 | 6.0 | 0.24 | 0.60 | 0.60 | 98 | 1012.1 |
| 20260904023432 | 56 | 124 | 2.0 | 2.0 | 0.24 | 0.59 | 0.59 | 98 | 1012.1 |
| 20260904022931 | 56 | 164 | 2.0 | 3.0 | 0.19 | 0.56 | 0.56 | 97 | 1012.1 |
| 20260904022428 | 56 | 172 | 2.0 | 2.0 | 0.12 | 0.55 | 0.55 | 97 | 1011.8 |
| 20260904021924 | 56 | 187 | 3.0 | 3.0 | 0.05 | 0.53 | 0.53 | 97 | 1012.1 |
| 20260904021420 | 56 | 197 | 0.0 | 1.0 | 0.05 | 0.53 | 0.53 | 97 | 1011.8 |
| 20260904020915 | 56 | 173 | 2.0 | 2.0 | 0.00 | 0.52 | 0.52 | 97 | 1012.1 |
| 20260904020411 | 56 | 187 | 3.0 | 3.0 | 0.00 | 0.52 | 0.52 | 97 | 1012.1 |
| 20260904015909 | 56 | 179 | 2.0 | 3.0 | 0.00 | 0.52 | 0.52 | 97 | 1011.8 |
| 20260904015405 | 56 | 188 | 2.0 | 2.0 | 0.00 | 0.52 | 0.52 | 96 | 1011.8 |
| 20260904014903 | 56 | 172 | 3.0 | 3.0 | 0.00 | 0.52 | 0.52 | 96 | 1012.1 |
| 20260904014359 | 56 | 175 | 1.0 | 2.0 | 0.00 | 0.52 | 0.52 | 96 | 1011.8 |
| 20260904013854 | 56 | 160 | 3.0 | 3.0 | 0.00 | 0.52 | 0.52 | 96 | 1011.8 |
| 20260904013350 | 56 | 195 | 2.0 | 3.0 | 0.00 | 0.52 | 0.52 | 95 | 1011.8 |
| 20260904012845 | 56 | 195 | 3.0 | 3.0 | 0.00 | 0.52 | 0.52 | 95 | 1012.1 |
| 20260904012340 | 56 | 177 | 4.0 | 5.0 | 0.00 | 0.52 | 0.52 | 95 | 1012.1 |
| 20260904011839 | 56 | 166 | 3.0 | 3.0 | 0.00 | 0.52 | 0.52 | 96 | 1011.8 |
| 20260904011335 | 56 | 193 | 1.0 | 1.0 | 0.07 | 0.52 | 0.52 | 96 | 1012.1 |
| 20260904010830 | 56 | 162 | 2.0 | 2.0 | 0.07 | 0.52 | 0.52 | 96 | 1012.1 |
| 20260904010326 | 56 | 173 | 4.0 | 5.0 | 0.07 | 0.52 | 0.52 | 96 | 1012.1 |
| 20260904005821 | 56 | 182 | 3.0 | 3.0 | 0.00 | 0.51 | 0.51 | 96 | 1011.8 |
| 20260904005317 | 56 | 156 | 2.0 | 2.0 | 0.00 | 0.51 | 0.51 | 96 | 1011.8 |
| 20260904004817 | 56 | 179 | 3.0 | 5.0 | 0.00 | 0.51 | 0.51 | 97 | 1011.8 |
| 20260904004313 | 57 | 173 | 2.0 | 3.0 | 0.00 | 0.51 | 0.51 | 97 | 1011.8 |
| 20260904003809 | 58 | 107 | 5.0 | 6.0 | 0.00 | 0.51 | 0.51 | 98 | 1011.8 |
| 20260904003305 | 57 | 198 | 2.0 | 2.0 | 0.00 | 0.51 | 0.51 | 98 | 1012.1 |
| 20260904002800 | 58 | 174 | 3.0 | 3.0 | 0.00 | 0.51 | 0.51 | 98 | 1012.1 |
| 20260904002256 | 59 | 214 | 0.0 | 0.0 | 0.00 | 0.51 | 0.51 | 98 | 1012.1 |
| 20260904001755 | 58 | 215 | 0.0 | 0.0 | 0.07 | 0.51 | 0.51 | 98 | 1012.1 |
| 20260904001249 | 57 | 211 | 0.0 | 0.0 | 0.12 | 0.51 | 0.51 | 98 | 1012.1 |
| 20260904000744 | 57 | 200 | 1.0 | 1.0 | 0.12 | 0.50 | 0.50 | 97 | 1012.1 |
| 20260904000240 | 57 | 159 | 2.0 | 3.0 | 0.12 | 0.49 | 0.49 | 97 | 1012.1 |
| 20260903235738 | 57 | 159 | 3.0 | 3.0 | 0.17 | 0.48 | 0.48 | 96 | 1012.1 |
| 20260903235235 | 57 | 194 | 0.0 | 1.0 | 0.12 | 0.47 | 0.47 | 96 | 1012.1 |
| 20260903234734 | 57 | 191 | 1.0 | 2.0 | 0.05 | 0.46 | 0.46 | 96 | 1012.1 |
| 20260903234231 | 57 | 176 | 1.0 | 1.0 | 0.00 | 0.45 | 0.45 | 96 | 1012.1 |
| 20260903233727 | 56 | 152 | 3.0 | 3.0 | 0.00 | 0.45 | 0.45 | 96 | 1012.1 |
| 20260903233222 | 56 | 136 | 2.0 | 2.0 | 0.00 | 0.45 | 0.45 | 96 | 1012.5 |
| 20260903232721 | 57 | 147 | 4.0 | 5.0 | 0.00 | 0.45 | 0.45 | 96 | 1012.1 |
| 20260903232217 | 57 | 190 | 1.0 | 2.0 | 0.00 | 0.45 | 0.45 | 97 | 1012.1 |
| 20260903231716 | 57 | 204 | 0.0 | 0.0 | 0.00 | 0.45 | 0.45 | 97 | 1012.1 |
| 20260903231212 | 57 | 186 | 1.0 | 2.0 | 0.00 | 0.45 | 0.45 | 97 | 1012.1 |
| 20260903230707 | 56 | 210 | 0.0 | 0.0 | 0.00 | 0.45 | 0.45 | 98 | 1012.5 |
| 20260903230202 | 56 | 196 | 2.0 | 2.0 | 0.12 | 0.45 | 0.45 | 97 | 1012.1 |
| 20260903225658 | 55 | 185 | 1.0 | 1.0 | 0.19 | 0.45 | 0.45 | 97 | 1012.5 |
| 20260903225154 | 56 | 221 | 2.0 | 2.0 | 0.12 | 0.43 | 0.43 | 97 | 1012.5 |
| 20260903224649 | 57 | 187 | 2.0 | 2.0 | 0.12 | 0.42 | 0.42 | 97 | 1012.5 |
| 20260903224146 | 56 | 215 | 0.0 | 0.0 | 0.12 | 0.41 | 0.41 | 97 | 1012.5 |
| 20260903223641 | 56 | 226 | 0.0 | 2.0 | 0.05 | 0.40 | 0.40 | 97 | 1012.5 |
| 20260903223139 | 56 | 203 | 1.0 | 2.0 | 0.00 | 0.39 | 0.39 | 97 | 1012.5 |
| 20260903222634 | 56 | 202 | 0.0 | 0.0 | 0.00 | 0.39 | 0.39 | 97 | 1012.5 |
| 20260903222134 | 55 | 207 | 2.0 | 2.0 | 0.00 | 0.39 | 0.39 | 96 | 1012.5 |
| 20260903221629 | 55 | 191 | 1.0 | 2.0 | 0.00 | 0.39 | 0.39 | 96 | 1012.5 |
| 20260903221127 | 55 | 212 | 1.0 | 1.0 | 0.00 | 0.39 | 0.39 | 96 | 1012.5 |
| 20260903220626 | 55 | 194 | 1.0 | 1.0 | 0.00 | 0.39 | 0.39 | 96 | 1012.5 |
| 20260903220126 | 54 | 211 | 0.0 | 0.0 | 0.14 | 0.39 | 0.39 | 96 | 1012.5 |
| 20260903215625 | 54 | 186 | 0.0 | 0.0 | 0.19 | 0.39 | 0.39 | 95 | 1012.5 |
| 20260903215120 | 53 | 209 | 0.0 | 0.0 | 0.19 | 0.38 | 0.38 | 95 | 1012.5 |
| 20260903214619 | 53 | 194 | 1.0 | 1.0 | 0.12 | 0.36 | 0.36 | 95 | 1012.8 |
| 20260903214115 | 53 | 210 | 2.0 | 2.0 | 0.24 | 0.35 | 0.35 | 94 | 1012.8 |
| 20260903213615 | 54 | 221 | 3.0 | 5.0 | 0.24 | 0.34 | 0.34 | 93 | 1012.8 |
| 20260903213111 | 55 | 223 | 3.0 | 3.0 | 0.31 | 0.32 | 0.32 | 92 | 1013.2 |
| 20260903212606 | 55 | 198 | 1.0 | 2.0 | 0.31 | 0.30 | 0.30 | 91 | 1012.8 |
| 20260903212101 | 56 | 200 | 1.0 | 1.0 | 0.07 | 0.26 | 0.26 | 90 | 1012.5 |
| 20260903211556 | 57 | 179 | 1.0 | 2.0 | 0.00 | 0.25 | 0.25 | 88 | 1012.8 |
| 20260903211053 | 57 | 209 | 1.0 | 1.0 | 0.00 | 0.25 | 0.25 | 87 | 1012.8 |
| 20260903210548 | 57 | 213 | 2.0 | 2.0 | 0.00 | 0.25 | 0.25 | 85 | 1012.5 |
| 20260903210044 | 58 | 240 | 0.0 | 1.0 | 0.00 | 0.25 | 0.25 | 85 | 1012.5 |
| 20260903205543 | 58 | 209 | 0.0 | 0.0 | 0.00 | 0.25 | 0.25 | 84 | 1012.5 |
| 20260903205037 | 58 | 202 | 1.0 | 1.0 | 0.00 | 0.25 | 0.25 | 83 | 1012.5 |
| 20260903204533 | 58 | 211 | 1.0 | 1.0 | 0.00 | 0.25 | 0.25 | 82 | 1012.8 |
| 20260903204029 | 58 | 220 | 1.0 | 2.0 | 0.00 | 0.25 | 0.25 | 82 | 1012.5 |
| 20260903203524 | 58 | 207 | 0.0 | 1.0 | 0.00 | 0.25 | 0.25 | 81 | 1012.8 |
| 20260903203024 | 59 | 250 | 4.0 | 8.0 | 0.00 | 0.25 | 0.25 | 82 | 1012.5 |
| 20260903202520 | 59 | 223 | 3.0 | 5.0 | 0.00 | 0.25 | 0.25 | 85 | 1012.8 |
| 20260903202015 | 60 | 221 | 2.0 | 3.0 | 0.00 | 0.25 | 0.25 | 85 | 1012.8 |
| 20260903201510 | 60 | 194 | 2.0 | 2.0 | 0.00 | 0.25 | 0.25 | 85 | 1012.8 |
| 20260903201009 | 59 | 190 | 6.0 | 9.0 | 0.00 | 0.25 | 0.25 | 84 | 1012.5 |
| 20260903200504 | 59 | 196 | 2.0 | 2.0 | 0.07 | 0.25 | 0.25 | 85 | 1012.5 |
| 20260903195959 | 58 | 161 | 8.0 | 10.0 | 0.07 | 0.25 | 0.25 | 87 | 1012.5 |
| 20260903195455 | 58 | 218 | 8.0 | 11.0 | 0.00 | 0.24 | 0.24 | 88 | 1012.5 |
| 20260903194950 | 58 | 137 | 3.0 | 5.0 | 0.00 | 0.24 | 0.24 | 90 | 1012.5 |
| 20260903194445 | 58 | 206 | 5.0 | 7.0 | 0.00 | 0.24 | 0.24 | 89 | 1012.5 |
| 20260903193941 | 58 | 185 | 8.0 | 9.0 | 0.00 | 0.24 | 0.24 | 88 | 1012.8 |
| 20260903193437 | 59 | 181 | 7.0 | 9.0 | 0.00 | 0.24 | 0.24 | 87 | 1012.5 |
| 20260903192932 | 59 | 160 | 4.0 | 5.0 | 0.00 | 0.24 | 0.24 | 87 | 1012.5 |
| 20260903192429 | 59 | 190 | 9.0 | 14.0 | 0.00 | 0.24 | 0.24 | 87 | 1012.8 |
| 20260903191924 | 59 | 191 | 5.0 | 6.0 | 0.00 | 0.24 | 0.24 | 86 | 1012.8 |
| 20260903191420 | 59 | 187 | 5.0 | 7.0 | 0.00 | 0.24 | 0.24 | 85 | 1012.8 |
| 20260903190919 | 59 | 182 | 13.0 | 17.0 | 0.00 | 0.24 | 0.24 | 85 | 1012.5 |
| 20260903190414 | 59 | 191 | 6.0 | 7.0 | 0.00 | 0.24 | 0.24 | 87 | 1012.5 |
| 20260903185913 | 59 | 182 | 6.0 | 7.0 | 0.00 | 0.24 | 0.24 | 88 | 1012.5 |
| 20260903185408 | 59 | 162 | 4.0 | 5.0 | 0.00 | 0.24 | 0.24 | 89 | 1012.8 |
| 20260903184904 | 59 | 136 | 5.0 | 7.0 | 0.00 | 0.24 | 0.24 | 92 | 1012.5 |
| 20260903184401 | 58 | 187 | 2.0 | 2.0 | 0.00 | 0.24 | 0.24 | 94 | 1012.5 |
| 20260903183854 | 57 | 104 | 5.0 | 7.0 | 0.00 | 0.24 | 0.24 | 95 | 1012.8 |
| 20260903183350 | 58 | 143 | 5.0 | 6.0 | 0.00 | 0.24 | 0.24 | 95 | 1012.8 |
| 20260903182849 | 58 | 137 | 4.0 | 5.0 | 0.00 | 0.24 | 0.24 | 96 | 1012.5 |
| 20260903182348 | 57 | 172 | 2.0 | 5.0 | 0.00 | 0.24 | 0.24 | 96 | 1012.8 |
| 20260903181843 | 57 | 198 | 3.0 | 5.0 | 0.00 | 0.24 | 0.24 | 96 | 1012.8 |
| 20260903181337 | 57 | 123 | 6.0 | 7.0 | 0.00 | 0.24 | 0.24 | 96 | 1012.5 |
| 20260903180832 | 57 | 140 | 2.0 | 3.0 | 0.00 | 0.24 | 0.24 | 96 | 1012.5 |
| 20260903180331 | 57 | 115 | 4.0 | 6.0 | 0.00 | 0.24 | 0.24 | 96 | 1012.8 |
| 20260903175826 | 57 | 165 | 6.0 | 8.0 | 0.00 | 0.24 | 0.24 | 96 | 1012.8 |
| 20260903175325 | 57 | 129 | 4.0 | 6.0 | 0.00 | 0.24 | 0.24 | 96 | 1012.5 |
| 20260903174819 | 57 | 136 | 7.0 | 8.0 | 0.00 | 0.24 | 0.24 | 96 | 1012.5 |
| 20260903174315 | 57 | 132 | 5.0 | 6.0 | 0.00 | 0.24 | 0.24 | 96 | 1012.5 |
| 20260903173814 | 56 | 121 | 5.0 | 8.0 | 0.00 | 0.24 | 0.24 | 97 | 1012.8 |
| 20260903173310 | 56 | 159 | 9.0 | 11.0 | 0.00 | 0.24 | 0.24 | 96 | 1012.5 |
| 20260903172806 | 56 | 160 | 4.0 | 6.0 | 0.00 | 0.24 | 0.24 | 96 | 1012.8 |
| 20260903172300 | 56 | 186 | 5.0 | 7.0 | 0.05 | 0.24 | 0.24 | 96 | 1012.5 |
| 20260903171755 | 56 | 163 | 4.0 | 5.0 | 0.24 | 0.24 | 0.24 | 95 | 1012.5 |
| 20260903171251 | 56 | 173 | 6.0 | 7.0 | 0.24 | 0.23 | 0.23 | 95 | 1012.5 |
| 20260903170749 | 57 | 181 | 2.0 | 2.0 | 0.05 | 0.20 | 0.20 | 96 | 1013.2 |
| 20260903170245 | 57 | 195 | 2.0 | 3.0 | 0.12 | 0.19 | 0.19 | 95 | 1012.8 |
| 20260903165743 | 57 | 174 | 3.0 | 6.0 | 0.19 | 0.19 | 0.19 | 93 | 1012.8 |
| 20260903165238 | 57 | 192 | 1.0 | 2.0 | 0.07 | 0.17 | 0.17 | 92 | 1012.8 |
| 20260903164734 | 58 | 176 | 6.0 | 8.0 | 0.05 | 0.16 | 0.16 | 90 | 1012.8 |
| 20260903164230 | 58 | 177 | 3.0 | 5.0 | 0.05 | 0.16 | 0.16 | 88 | 1012.8 |
| 20260903163729 | 58 | 169 | 4.0 | 6.0 | 0.00 | 0.15 | 0.15 | 87 | 1012.8 |
| 20260903163226 | 58 | 164 | 8.0 | 11.0 | 0.00 | 0.15 | 0.15 | 88 | 1012.8 |
| 20260903162721 | 58 | 186 | 2.0 | 2.0 | 0.00 | 0.15 | 0.15 | 90 | 1012.8 |